Location: Unspecified
(35.7250°N, 0.0000°E)
Time: 06:42:10
(UTC+00:00)

Vanguard 1 - Visible Passes

Search period start: 30 September 2020 00:00
Search period end: 10 October 2020 00:00
Orbit: 650 x 3832 km, 34.2° (Epoch: 29 September)

Date Brightness Start Highest point End Pass type
(mag) Time Alt. Az. Time Alt. Az. Time Alt. Az.
30 Sep 12.2 03:55:04 11° S 03:55:04 11° S 03:55:34 10° S visible
30 Sep 11.4 18:44:17 10° SSW 18:53:11 29° SSE 18:56:45 19° ESE visible
30 Sep 12.0 21:06:38 10° WSW 21:09:29 22° WSW 21:09:29 22° WSW visible
01 Oct 11.0 19:04:35 10° SW 19:14:12 37° SSE 19:16:43 29° ESE visible
01 Oct 12.4 21:27:43 10° WSW 21:29:26 17° WSW 21:29:26 17° WSW visible
02 Oct 10.6 19:25:15 10° SW 19:35:12 47° SSE 19:36:39 42° SE visible
02 Oct 12.7 21:48:54 10° W 21:49:22 12° W 21:49:22 12° W visible
03 Oct 10.4 19:46:13 10° WSW 19:56:09 58° SSE 19:56:32 57° SSE visible
04 Oct 12.0 17:43:19 10° SW 17:55:40 37° SSE 18:02:54 10° E visible
04 Oct 10.4 20:07:22 10° WSW 20:16:24 64° SSW 20:16:24 64° SSW visible
05 Oct 11.6 18:03:50 10° SW 18:16:45 46° SSE 18:23:32 12° E visible
05 Oct 10.8 20:28:39 10° WSW 20:36:14 54° WSW 20:36:14 54° WSW visible
06 Oct 11.3 18:24:43 10° SW 18:37:48 55° SSE 18:43:21 19° E visible
06 Oct 11.4 20:50:01 10° W 20:56:03 40° WSW 20:56:03 40° WSW visible
07 Oct 11.0 18:45:51 10° WSW 18:58:50 65° SSE 19:03:09 28° E visible
07 Oct 11.9 21:11:21 10° W 21:15:51 30° W 21:15:51 30° W visible
08 Oct 10.7 19:07:11 10° WSW 19:19:51 73° S 19:22:55 40° E visible
08 Oct 12.3 21:32:41 10° W 21:35:37 21° W 21:35:37 21° W visible
09 Oct 10.5 19:28:39 10° WSW 19:40:51 79° S 19:42:40 57° ESE visible
09 Oct 12.7 21:54:00 10° W 21:55:22 15° W 21:55:22 15° W visible
